| time (UTC) | temp F | wind direction | speed MPH | gust MPH | rain 1hr in | rain 24hr in | rain mn in | humidity % | barometer mb |
| 20260831200529 | 100 | 266 | 3.0 | 9.0 | 0.00 | 0.00 | 0.00 | 36 | 1014.3 |
| 20260831200053 | 100 | 176 | 2.0 | 9.0 | 0.00 | 0.00 | 0.00 | 37 | 1014.3 |
| 20260831195525 | 99 | 203 | 2.0 | 9.0 | 0.00 | 0.00 | 0.00 | 37 | 1014.4 |
| 20260831195027 | 99 | 259 | 2.0 | 8.0 | 0.00 | 0.00 | 0.00 | 38 | 1014.3 |
| 20260831194601 | 99 | 295 | 2.0 | 9.0 | 0.00 | 0.00 | 0.00 | 37 | 1014.3 |
| 20260831194027 | 99 | 257 | 1.0 | 9.0 | 0.00 | 0.00 | 0.00 | 39 | 1014.3 |
| 20260831193524 | 99 | 171 | 2.0 | 8.0 | 0.00 | 0.00 | 0.00 | 37 | 1014.3 |
| 20260831193049 | 99 | 178 | 1.0 | 8.0 | 0.00 | 0.00 | 0.00 | 37 | 1014.4 |
| 20260831192525 | 99 | 0 | 2.0 | 8.0 | 0.00 | 0.00 | 0.00 | 36 | 1014.4 |
| 20260831192024 | 99 | 262 | 3.0 | 9.0 | 0.00 | 0.00 | 0.00 | 36 | 1014.4 |
| 20260831191550 | 99 | 5 | 1.0 | 9.0 | 0.00 | 0.00 | 0.00 | 37 | 1014.5 |
| 20260831191027 | 99 | 178 | 2.0 | 15.0 | 0.00 | 0.00 | 0.00 | 38 | 1014.6 |
| 20260831190531 | 99 | 170 | 3.0 | 15.0 | 0.00 | 0.00 | 0.00 | 37 | 1014.5 |
| 20260831190057 | 99 | 162 | 1.0 | 11.0 | 0.00 | 0.00 | 0.00 | 38 | 1014.5 |
| 20260831185527 | 98 | 276 | 3.0 | 11.0 | 0.00 | 0.00 | 0.00 | 40 | 1014.6 |
| 20260831185022 | 98 | 254 | 2.0 | 11.0 | 0.00 | 0.00 | 0.00 | 39 | 1014.6 |
| 20260831184552 | 97 | 188 | 4.0 | 11.0 | 0.00 | 0.00 | 0.00 | 38 | 1014.5 |
| 20260831184024 | 98 | 175 | 2.0 | 10.0 | 0.00 | 0.00 | 0.00 | 39 | 1014.6 |
| 20260831183529 | 97 | 261 | 2.0 | 15.0 | 0.00 | 0.00 | 0.00 | 40 | 1014.6 |
| 20260831183046 | 96 | 309 | 3.0 | 15.0 | 0.00 | 0.00 | 0.00 | 40 | 1014.7 |
| 20260831182525 | 96 | 181 | 6.0 | 12.0 | 0.00 | 0.00 | 0.00 | 39 | 1014.6 |
| 20260831182029 | 96 | 0 | 3.0 | 10.0 | 0.00 | 0.00 | 0.00 | 42 | 1014.7 |
| 20260831181552 | 96 | 315 | 2.0 | 11.0 | 0.00 | 0.00 | 0.00 | 41 | 1014.8 |
| 20260831181027 | 96 | 203 | 2.0 | 11.0 | 0.00 | 0.00 | 0.00 | 42 | 1014.9 |
| 20260831180530 | 96 | 265 | 2.0 | 10.0 | 0.00 | 0.00 | 0.00 | 42 | 1015.0 |
| 20260831180100 | 95 | 174 | 2.0 | 10.0 | 0.00 | 0.00 | 0.00 | 43 | 1015.0 |
| 20260831175525 | 95 | 186 | 3.0 | 10.0 | 0.00 | 0.00 | 0.00 | 42 | 1015.1 |
| 20260831175027 | 96 | 175 | 2.0 | 9.0 | 0.00 | 0.00 | 0.00 | 43 | 1015.2 |
| 20260831174547 | 95 | 159 | 2.0 | 9.0 | 0.00 | 0.00 | 0.00 | 43 | 1015.2 |
| 20260831174025 | 95 | 207 | 2.0 | 11.0 | 0.00 | 0.00 | 0.00 | 44 | 1015.4 |
| 20260831173524 | 94 | 322 | 3.0 | 14.0 | 0.00 | 0.00 | 0.00 | 45 | 1015.3 |
| 20260831173050 | 93 | 159 | 1.0 | 14.0 | 0.00 | 0.00 | 0.00 | 47 | 1015.3 |
| 20260831172526 | 93 | 179 | 4.0 | 14.0 | 0.00 | 0.00 | 0.00 | 46 | 1015.3 |
| 20260831172026 | 93 | 150 | 3.0 | 15.0 | 0.00 | 0.00 | 0.00 | 44 | 1015.3 |
| 20260831171543 | 93 | 170 | 3.0 | 15.0 | 0.00 | 0.00 | 0.00 | 46 | 1015.4 |
| 20260831171024 | 93 | 265 | 4.0 | 8.0 | 0.00 | 0.00 | 0.00 | 45 | 1015.4 |
| 20260831170532 | 93 | 84 | 1.0 | 10.0 | 0.00 | 0.00 | 0.00 | 46 | 1015.5 |
| 20260831170049 | 93 | 150 | 1.0 | 10.0 | 0.00 | 0.00 | 0.00 | 45 | 1015.6 |
| 20260831165524 | 92 | 276 | 4.0 | 10.0 | 0.00 | 0.00 | 0.00 | 46 | 1015.6 |
| 20260831165026 | 92 | 0 | 2.0 | 9.0 | 0.00 | 0.00 | 0.00 | 46 | 1015.6 |
| 20260831164547 | 92 | 204 | 3.0 | 12.0 | 0.00 | 0.00 | 0.00 | 46 | 1015.7 |
| 20260831164023 | 92 | 0 | 2.0 | 13.0 | 0.00 | 0.00 | 0.00 | 47 | 1015.6 |
| 20260831163528 | 92 | 0 | 2.0 | 13.0 | 0.00 | 0.00 | 0.00 | 46 | 1015.5 |
| 20260831163043 | 91 | 114 | 3.0 | 11.0 | 0.00 | 0.00 | 0.00 | 47 | 1015.5 |
| 20260831162530 | 91 | 200 | 2.0 | 10.0 | 0.00 | 0.00 | 0.00 | 47 | 1015.5 |
| 20260831162027 | 91 | 170 | 1.0 | 16.0 | 0.00 | 0.00 | 0.00 | 49 | 1015.6 |
| 20260831161550 | 89 | 165 | 5.0 | 16.0 | 0.00 | 0.00 | 0.00 | 49 | 1015.6 |
| 20260831161026 | 90 | 170 | 2.0 | 9.0 | 0.00 | 0.00 | 0.00 | 50 | 1015.6 |
| 20260831160524 | 90 | 350 | 1.0 | 10.0 | 0.00 | 0.00 | 0.00 | 50 | 1015.7 |
| 20260831160047 | 89 | 169 | 3.0 | 10.0 | 0.00 | 0.00 | 0.00 | 50 | 1015.7 |
| 20260831155526 | 88 | 281 | 2.0 | 9.0 | 0.00 | 0.00 | 0.00 | 52 | 1015.8 |
| 20260831155028 | 88 | 0 | 3.0 | 9.0 | 0.00 | 0.00 | 0.00 | 53 | 1015.9 |
| 20260831154619 | 88 | 0 | 1.0 | 6.0 | 0.00 | 0.00 | 0.00 | 52 | 1015.9 |
| 20260831154028 | 87 | 90 | 1.0 | 8.0 | 0.00 | 0.00 | 0.00 | 54 | 1015.9 |
| 20260831153532 | 86 | 132 | 2.0 | 8.0 | 0.00 | 0.00 | 0.00 | 54 | 1015.8 |
| 20260831153053 | 86 | 219 | 1.0 | 5.0 | 0.00 | 0.00 | 0.00 | 54 | 1015.9 |
| 20260831152528 | 86 | 0 | 1.0 | 5.0 | 0.00 | 0.00 | 0.00 | 55 | 1015.8 |
| 20260831152029 | 86 | 0 | 1.0 | 5.0 | 0.00 | 0.00 | 0.00 | 54 | 1015.7 |
| 20260831151549 | 86 | 0 | 1.0 | 8.0 | 0.00 | 0.00 | 0.00 | 56 | 1015.7 |
| 20260831151028 | 85 | 0 | 1.0 | 8.0 | 0.00 | 0.00 | 0.00 | 56 | 1015.8 |
| 20260831150530 | 86 | 163 | 1.0 | 8.0 | 0.00 | 0.00 | 0.00 | 55 | 1015.8 |
| 20260831150048 | 86 | 345 | 2.0 | 9.0 | 0.00 | 0.00 | 0.00 | 56 | 1015.8 |
| 20260831145528 | 85 | 180 | 1.0 | 9.0 | 0.00 | 0.00 | 0.00 | 58 | 1015.8 |
| 20260831145029 | 84 | 225 | 2.0 | 10.0 | 0.00 | 0.00 | 0.00 | 57 | 1015.7 |
| 20260831144552 | 84 | 218 | 3.0 | 10.0 | 0.00 | 0.00 | 0.00 | 59 | 1015.7 |
| 20260831144024 | 84 | 348 | 2.0 | 10.0 | 0.00 | 0.00 | 0.00 | 59 | 1015.7 |
| 20260831143526 | 83 | 0 | 2.0 | 10.0 | 0.00 | 0.00 | 0.00 | 60 | 1015.7 |
| 20260831143054 | 83 | 170 | 0.0 | 6.0 | 0.00 | 0.00 | 0.00 | 61 | 1015.8 |
| 20260831142526 | 82 | 269 | 2.0 | 9.0 | 0.00 | 0.00 | 0.00 | 61 | 1015.8 |
| 20260831142028 | 82 | 306 | 0.0 | 9.0 | 0.00 | 0.00 | 0.00 | 62 | 1015.9 |
| 20260831141549 | 81 | 42 | 2.0 | 13.0 | 0.00 | 0.00 | 0.00 | 63 | 1015.9 |
| 20260831141025 | 80 | 190 | 1.0 | 13.0 | 0.00 | 0.00 | 0.00 | 64 | 1015.9 |
| 20260831140527 | 79 | 178 | 3.0 | 12.0 | 0.00 | 0.00 | 0.00 | 65 | 1015.9 |
| 20260831140048 | 79 | 159 | 4.0 | 9.0 | 0.00 | 0.00 | 0.00 | 66 | 1015.9 |
| 20260831135525 | 78 | 159 | 3.0 | 9.0 | 0.00 | 0.00 | 0.00 | 67 | 1015.8 |
| 20260831135024 | 78 | 184 | 2.0 | 8.0 | 0.00 | 0.00 | 0.00 | 67 | 1016.0 |
| 20260831134546 | 78 | 131 | 3.0 | 8.0 | 0.00 | 0.00 | 0.00 | 66 | 1015.9 |
| 20260831134031 | 78 | 217 | 1.0 | 9.0 | 0.00 | 0.00 | 0.00 | 66 | 1015.8 |
| 20260831133528 | 78 | 298 | 3.0 | 9.0 | 0.00 | 0.00 | 0.00 | 66 | 1015.7 |
| 20260831133055 | 78 | 0 | 2.0 | 9.0 | 0.00 | 0.00 | 0.00 | 67 | 1015.7 |
| 20260831132525 | 77 | 161 | 1.0 | 8.0 | 0.00 | 0.00 | 0.00 | 68 | 1015.7 |
| 20260831132030 | 77 | 170 | 3.0 | 8.0 | 0.00 | 0.00 | 0.00 | 67 | 1015.8 |
| 20260831131553 | 77 | 171 | 2.0 | 9.0 | 0.00 | 0.00 | 0.00 | 67 | 1015.9 |
| 20260831131027 | 77 | 0 | 2.0 | 9.0 | 0.00 | 0.00 | 0.00 | 67 | 1015.9 |
| 20260831130524 | 77 | 0 | 1.0 | 7.0 | 0.00 | 0.00 | 0.00 | 67 | 1015.8 |
| 20260831130052 | 77 | 129 | 2.0 | 7.0 | 0.00 | 0.00 | 0.00 | 67 | 1015.8 |
| 20260831125523 | 77 | 0 | 1.0 | 7.0 | 0.00 | 0.00 | 0.00 | 67 | 1015.7 |
| 20260831125028 | 77 | 138 | 1.0 | 11.0 | 0.00 | 0.00 | 0.00 | 67 | 1015.7 |
| 20260831124549 | 77 | 161 | 2.0 | 11.0 | 0.00 | 0.00 | 0.00 | 67 | 1015.5 |
| 20260831124024 | 76 | 188 | 3.0 | 10.0 | 0.00 | 0.00 | 0.00 | 67 | 1015.4 |
| 20260831123525 | 76 | 182 | 2.0 | 6.0 | 0.00 | 0.00 | 0.00 | 68 | 1015.4 |
| 20260831123050 | 76 | 0 | 2.0 | 6.0 | 0.00 | 0.00 | 0.00 | 68 | 1015.5 |
| 20260831122527 | 76 | 192 | 0.0 | 5.0 | 0.00 | 0.00 | 0.00 | 68 | 1015.4 |
| 20260831122025 | 76 | 0 | 1.0 | 7.0 | 0.00 | 0.00 | 0.00 | 68 | 1015.3 |
| 20260831121545 | 75 | 0 | 1.0 | 7.0 | 0.00 | 0.00 | 0.00 | 68 | 1015.2 |
| 20260831121024 | 75 | 0 | 1.0 | 7.0 | 0.00 | 0.00 | 0.00 | 68 | 1015.2 |
| 20260831120525 | 75 | 0 | 1.0 | 7.0 | 0.00 | 0.00 | 0.00 | 68 | 1015.1 |
| 20260831120053 | 75 | 157 | 0.0 | 6.0 | 0.00 | 0.00 | 0.00 | 68 | 1014.9 |
| 20260831115531 | 75 | 0 | 1.0 | 6.0 | 0.00 | 0.00 | 0.00 | 68 | 1014.9 |
| 20260831115027 | 75 | 0 | 0.0 | 7.0 | 0.00 | 0.00 | 0.00 | 67 | 1014.7 |
| 20260831114544 | 75 | 196 | 3.0 | 7.0 | 0.00 | 0.00 | 0.00 | 67 | 1014.5 |
| 20260831114025 | 76 | 167 | 3.0 | 7.0 | 0.00 | 0.00 | 0.00 | 67 | 1014.5 |
| 20260831113525 | 76 | 143 | 3.0 | 8.0 | 0.00 | 0.00 | 0.00 | 66 | 1014.4 |
| 20260831113050 | 76 | 182 | 2.0 | 9.0 | 0.00 | 0.00 | 0.00 | 65 | 1014.4 |
| 20260831112524 | 76 | 187 | 4.0 | 9.0 | 0.00 | 0.00 | 0.00 | 65 | 1014.4 |
| 20260831112024 | 76 | 0 | 2.0 | 7.0 | 0.00 | 0.00 | 0.00 | 65 | 1014.4 |
| 20260831111554 | 77 | 196 | 2.0 | 9.0 | 0.00 | 0.00 | 0.00 | 65 | 1014.5 |
| 20260831111023 | 76 | 209 | 2.0 | 9.0 | 0.00 | 0.00 | 0.00 | 65 | 1014.5 |
| 20260831110524 | 76 | 178 | 3.0 | 9.0 | 0.00 | 0.00 | 0.00 | 65 | 1014.5 |
| 20260831110049 | 76 | 169 | 3.0 | 9.0 | 0.00 | 0.00 | 0.00 | 65 | 1014.5 |
| 20260831105526 | 76 | 169 | 2.0 | 9.0 | 0.00 | 0.00 | 0.00 | 65 | 1014.4 |
| 20260831105026 | 76 | 0 | 1.0 | 5.0 | 0.00 | 0.00 | 0.00 | 65 | 1014.4 |
| 20260831104544 | 76 | 0 | 0.0 | 3.0 | 0.00 | 0.00 | 0.00 | 65 | 1014.3 |
| 20260831104026 | 77 | 174 | 0.0 | 3.0 | 0.00 | 0.00 | 0.00 | 64 | 1014.2 |
| 20260831103525 | 77 | 177 | 0.0 | 2.0 | 0.00 | 0.00 | 0.00 | 64 | 1014.2 |
| 20260831103041 | 77 | 0 | 0.0 | 6.0 | 0.00 | 0.00 | 0.00 | 63 | 1014.2 |
| 20260831102526 | 77 | 0 | 0.0 | 6.0 | 0.00 | 0.00 | 0.00 | 63 | 1014.1 |
| 20260831102028 | 77 | 183 | 2.0 | 7.0 | 0.00 | 0.00 | 0.00 | 62 | 1013.9 |
| 20260831101556 | 78 | 156 | 2.0 | 9.0 | 0.00 | 0.00 | 0.00 | 62 | 1013.8 |
| 20260831101022 | 78 | 0 | 3.0 | 10.0 | 0.00 | 0.00 | 0.00 | 62 | 1013.7 |
| 20260831100524 | 78 | 148 | 3.0 | 10.0 | 0.00 | 0.00 | 0.00 | 61 | 1013.6 |
| 20260831100047 | 78 | 151 | 3.0 | 9.0 | 0.00 | 0.00 | 0.00 | 61 | 1013.6 |
| 20260831095526 | 78 | 179 | 2.0 | 9.0 | 0.00 | 0.00 | 0.00 | 61 | 1013.6 |
| 20260831095023 | 79 | 186 | 3.0 | 14.0 | 0.00 | 0.00 | 0.00 | 60 | 1013.5 |
| 20260831094544 | 79 | 176 | 3.0 | 14.0 | 0.00 | 0.00 | 0.00 | 60 | 1013.5 |
| 20260831094025 | 79 | 169 | 4.0 | 11.0 | 0.00 | 0.00 | 0.00 | 59 | 1013.4 |
| 20260831093523 | 79 | 163 | 2.0 | 12.0 | 0.00 | 0.00 | 0.00 | 59 | 1013.3 |
| 20260831093050 | 79 | 178 | 6.0 | 12.0 | 0.00 | 0.00 | 0.00 | 58 | 1013.2 |
| 20260831092525 | 79 | 0 | 4.0 | 11.0 | 0.00 | 0.00 | 0.00 | 58 | 1013.2 |
| 20260831092025 | 79 | 180 | 4.0 | 10.0 | 0.00 | 0.00 | 0.00 | 58 | 1013.3 |
| 20260831091559 | 80 | 188 | 3.0 | 10.0 | 0.00 | 0.00 | 0.00 | 58 | 1013.4 |
| 20260831091028 | 80 | 173 | 3.0 | 8.0 | 0.00 | 0.00 | 0.00 | 57 | 1013.3 |
| 20260831090524 | 80 | 154 | 3.0 | 14.0 | 0.00 | 0.00 | 0.00 | 57 | 1013.3 |
| 20260831090051 | 80 | 190 | 4.0 | 14.0 | 0.00 | 0.00 | 0.00 | 57 | 1013.3 |
| 20260831085523 | 80 | 181 | 3.0 | 10.0 | 0.00 | 0.00 | 0.00 | 56 | 1013.1 |
| 20260831085024 | 80 | 196 | 1.0 | 9.0 | 0.00 | 0.00 | 0.00 | 56 | 1013.2 |
| 20260831084547 | 81 | 154 | 2.0 | 9.0 | 0.00 | 0.00 | 0.00 | 56 | 1013.1 |
| 20260831084026 | 81 | 0 | 2.0 | 11.0 | 0.00 | 0.00 | 0.00 | 55 | 1013.1 |
| 20260831083523 | 81 | 167 | 3.0 | 11.0 | 0.00 | 0.00 | 0.00 | 55 | 1013.1 |
| 20260831083057 | 81 | 192 | 4.0 | 11.0 | 0.00 | 0.00 | 0.00 | 55 | 1013.1 |
| 20260831082524 | 81 | 191 | 5.0 | 11.0 | 0.00 | 0.00 | 0.00 | 55 | 1013.1 |
| 20260831082024 | 81 | 190 | 3.0 | 12.0 | 0.00 | 0.00 | 0.00 | 55 | 1013.2 |
| 20260831081558 | 81 | 173 | 3.0 | 12.0 | 0.00 | 0.00 | 0.00 | 54 | 1013.1 |
| 20260831081023 | 82 | 180 | 3.0 | 9.0 | 0.00 | 0.00 | 0.00 | 54 | 1013.1 |
| 20260831080525 | 82 | 164 | 3.0 | 9.0 | 0.00 | 0.00 | 0.00 | 54 | 1013.1 |
| 20260831080112 | 82 | 156 | 2.0 | 7.0 | 0.00 | 0.00 | 0.00 | 54 | 1013.0 |
| 20260831075526 | 82 | 0 | 2.0 | 6.0 | 0.00 | 0.00 | 0.00 | 53 | 1013.0 |
| 20260831075023 | 83 | 170 | 1.0 | 7.0 | 0.00 | 0.00 | 0.00 | 52 | 1013.1 |
| 20260831074545 | 83 | 153 | 1.0 | 7.0 | 0.00 | 0.00 | 0.00 | 52 | 1013.2 |
| 20260831074027 | 83 | 220 | 1.0 | 7.0 | 0.00 | 0.00 | 0.00 | 51 | 1013.0 |
| 20260831073527 | 83 | 0 | 1.0 | 7.0 | 0.00 | 0.00 | 0.00 | 51 | 1012.9 |
| 20260831073111 | 83 | 167 | 2.0 | 8.0 | 0.00 | 0.00 | 0.00 | 51 | 1012.8 |
| 20260831072526 | 83 | 183 | 1.0 | 9.0 | 0.00 | 0.00 | 0.00 | 51 | 1012.9 |
| 20260831072029 | 83 | 0 | 2.0 | 9.0 | 0.00 | 0.00 | 0.00 | 51 | 1012.8 |
| 20260831071553 | 83 | 186 | 0.0 | 6.0 | 0.00 | 0.00 | 0.00 | 51 | 1012.9 |
| 20260831071027 | 83 | 244 | 0.0 | 4.0 | 0.00 | 0.00 | 0.00 | 51 | 1013.0 |
| 20260831070529 | 84 | 0 | 0.0 | 6.0 | 0.00 | 0.00 | 0.00 | 50 | 1013.0 |
| 20260831070048 | 84 | 0 | 2.0 | 8.0 | 0.00 | 0.00 | 0.00 | 50 | 1013.1 |
| 20260831065524 | 84 | 205 | 2.0 | 8.0 | 0.00 | 0.00 | 0.00 | 50 | 1013.0 |
| 20260831065029 | 84 | 0 | 0.0 | 6.0 | 0.00 | 0.00 | 0.00 | 50 | 1013.0 |
| 20260831064547 | 84 | 173 | 0.0 | 8.0 | 0.00 | 0.00 | 0.00 | 51 | 1013.1 |
| 20260831064028 | 84 | 0 | 2.0 | 8.0 | 0.00 | 0.00 | 0.00 | 51 | 1013.0 |
| 20260831063524 | 84 | 0 | 1.0 | 6.0 | 0.00 | 0.00 | 0.00 | 51 | 1012.9 |
| 20260831063050 | 84 | 175 | 2.0 | 8.0 | 0.00 | 0.00 | 0.00 | 51 | 1012.8 |
| 20260831062523 | 84 | 175 | 2.0 | 10.0 | 0.00 | 0.00 | 0.00 | 51 | 1012.7 |
| 20260831062030 | 84 | 207 | 3.0 | 10.0 | 0.00 | 0.00 | 0.00 | 50 | 1012.7 |
| 20260831061549 | 84 | 180 | 4.0 | 9.0 | 0.00 | 0.00 | 0.00 | 51 | 1012.7 |
| 20260831061029 | 84 | 0 | 2.0 | 9.0 | 0.00 | 0.00 | 0.00 | 51 | 1012.7 |
| 20260831060525 | 84 | 165 | 2.0 | 10.0 | 0.00 | 0.00 | 0.00 | 51 | 1012.7 |
| 20260831060055 | 84 | 164 | 3.0 | 10.0 | 0.00 | 0.00 | 0.00 | 51 | 1012.5 |
| 20260831055523 | 84 | 174 | 3.0 | 10.0 | 0.00 | 0.00 | 0.00 | 51 | 1012.6 |
| 20260831055023 | 84 | 171 | 2.0 | 11.0 | 0.00 | 0.00 | 0.00 | 51 | 1012.5 |
| 20260831054552 | 84 | 169 | 4.0 | 13.0 | 0.00 | 0.00 | 0.00 | 51 | 1012.5 |
| 20260831054032 | 84 | 207 | 4.0 | 13.0 | 0.00 | 0.00 | 0.00 | 51 | 1012.4 |
| 20260831053523 | 85 | 169 | 5.0 | 13.0 | 0.00 | 0.00 | 0.00 | 51 | 1012.4 |
| 20260831053047 | 85 | 177 | 5.0 | 12.0 | 0.00 | 0.00 | 0.00 | 51 | 1012.4 |
| 20260831052522 | 85 | 192 | 3.0 | 13.0 | 0.00 | 0.00 | 0.00 | 51 | 1012.3 |
| 20260831052025 | 85 | 144 | 3.0 | 15.0 | 0.00 | 0.00 | 0.00 | 51 | 1012.2 |
| 20260831051551 | 85 | 162 | 6.0 | 15.0 | 0.00 | 0.00 | 0.00 | 50 | 1012.2 |
| 20260831051027 | 85 | 132 | 3.0 | 15.0 | 0.00 | 0.00 | 0.00 | 51 | 1012.1 |
| 20260831050527 | 85 | 165 | 4.0 | 14.0 | 0.00 | 0.00 | 0.00 | 50 | 1012.2 |
| 20260831050055 | 85 | 147 | 4.0 | 19.0 | 0.00 | 0.00 | 0.00 | 50 | 1012.2 |
| 20260831045524 | 85 | 198 | 6.0 | 19.0 | 0.00 | 0.00 | 0.00 | 50 | 1012.2 |
| 20260831045025 | 85 | 206 | 5.0 | 14.0 | 0.00 | 0.00 | 0.00 | 50 | 1012.2 |
| 20260831044556 | 85 | 155 | 3.0 | 14.0 | 0.00 | 0.00 | 0.00 | 50 | 1012.1 |
| 20260831044025 | 85 | 179 | 3.0 | 10.0 | 0.00 | 0.00 | 0.00 | 50 | 1012.2 |
| 20260831043523 | 86 | 171 | 4.0 | 10.0 | 0.00 | 0.00 | 0.00 | 50 | 1012.1 |
| 20260831043043 | 86 | 152 | 3.0 | 14.0 | 0.00 | 0.00 | 0.00 | 50 | 1012.2 |
| 20260831042524 | 86 | 119 | 4.0 | 14.0 | 0.00 | 0.00 | 0.00 | 50 | 1012.2 |
| 20260831042025 | 86 | 160 | 2.0 | 11.0 | 0.00 | 0.00 | 0.00 | 50 | 1012.1 |
| 20260831041559 | 86 | 209 | 3.0 | 14.0 | 0.00 | 0.00 | 0.00 | 50 | 1012.0 |
| 20260831041029 | 86 | 174 | 3.0 | 14.0 | 0.00 | 0.00 | 0.00 | 49 | 1012.0 |
| 20260831040527 | 86 | 227 | 3.0 | 14.0 | 0.00 | 0.00 | 0.00 | 49 | 1012.0 |
| 20260831040043 | 86 | 169 | 4.0 | 13.0 | 0.00 | 0.00 | 0.00 | 49 | 1012.1 |
| 20260831035522 | 87 | 207 | 2.0 | 13.0 | 0.00 | 0.00 | 0.00 | 49 | 1012.0 |
| 20260831035023 | 87 | 162 | 3.0 | 13.0 | 0.00 | 0.00 | 0.00 | 48 | 1012.0 |
| 20260831034553 | 87 | 161 | 3.0 | 14.0 | 0.00 | 0.00 | 0.00 | 48 | 1011.9 |
| 20260831034026 | 87 | 157 | 4.0 | 14.0 | 0.00 | 0.00 | 0.00 | 48 | 1011.9 |
| 20260831033523 | 87 | 149 | 3.0 | 10.0 | 0.00 | 0.00 | 0.00 | 48 | 1011.9 |
| 20260831033048 | 87 | 180 | 3.0 | 10.0 | 0.00 | 0.00 | 0.00 | 47 | 1011.9 |
| 20260831032525 | 87 | 206 | 3.0 | 10.0 | 0.00 | 0.00 | 0.00 | 47 | 1011.9 |
| 20260831032024 | 87 | 94 | 4.0 | 10.0 | 0.00 | 0.00 | 0.00 | 47 | 1011.8 |
| 20260831031551 | 88 | 155 | 4.0 | 14.0 | 0.00 | 0.00 | 0.00 | 46 | 1011.8 |
| 20260831031026 | 88 | 168 | 5.0 | 14.0 | 0.00 | 0.00 | 0.00 | 46 | 1011.8 |
| 20260831030522 | 88 | 144 | 6.0 | 14.0 | 0.00 | 0.00 | 0.00 | 46 | 1011.7 |
| 20260831030053 | 88 | 171 | 4.0 | 13.0 | 0.00 | 0.00 | 0.00 | 45 | 1011.8 |
| 20260831025525 | 88 | 164 | 5.0 | 13.0 | 0.00 | 0.00 | 0.00 | 45 | 1011.8 |
| 20260831025031 | 89 | 175 | 4.0 | 13.0 | 0.00 | 0.00 | 0.00 | 45 | 1011.8 |
| 20260831024547 | 89 | 167 | 3.0 | 16.0 | 0.00 | 0.00 | 0.00 | 45 | 1011.8 |
| 20260831024024 | 89 | 163 | 2.0 | 16.0 | 0.00 | 0.00 | 0.00 | 44 | 1011.8 |
| 20260831023525 | 89 | 217 | 3.0 | 11.0 | 0.00 | 0.00 | 0.00 | 44 | 1011.8 |
| 20260831023044 | 89 | 155 | 3.0 | 13.0 | 0.00 | 0.00 | 0.00 | 44 | 1011.7 |
| 20260831022528 | 89 | 196 | 4.0 | 13.0 | 0.00 | 0.00 | 0.00 | 44 | 1011.7 |
| 20260831022025 | 90 | 154 | 5.0 | 16.0 | 0.00 | 0.00 | 0.00 | 43 | 1011.7 |
| 20260831021552 | 90 | 190 | 5.0 | 16.0 | 0.00 | 0.00 | 0.00 | 44 | 1011.6 |
| 20260831021024 | 90 | 191 | 4.0 | 12.0 | 0.00 | 0.00 | 0.00 | 44 | 1011.4 |
| 20260831020525 | 90 | 166 | 4.0 | 14.0 | 0.00 | 0.00 | 0.00 | 44 | 1011.5 |
| 20260831020051 | 90 | 169 | 4.0 | 14.0 | 0.00 | 0.00 | 0.00 | 44 | 1011.4 |
| 20260831015523 | 90 | 175 | 5.0 | 14.0 | 0.00 | 0.00 | 0.00 | 43 | 1011.4 |
| 20260831015027 | 90 | 187 | 3.0 | 14.0 | 0.00 | 0.00 | 0.00 | 44 | 1011.4 |
| 20260831014549 | 90 | 167 | 4.0 | 14.0 | 0.00 | 0.00 | 0.00 | 44 | 1011.2 |
| 20260831014024 | 90 | 141 | 7.0 | 14.0 | 0.00 | 0.00 | 0.00 | 44 | 1011.2 |
| 20260831013525 | 90 | 149 | 4.0 | 14.0 | 0.00 | 0.00 | 0.00 | 44 | 1011.2 |
| 20260831013054 | 91 | 157 | 5.0 | 14.0 | 0.00 | 0.00 | 0.00 | 44 | 1011.1 |
| 20260831012525 | 91 | 182 | 2.0 | 11.0 | 0.00 | 0.00 | 0.00 | 44 | 1011.1 |
| 20260831012024 | 91 | 164 | 3.0 | 11.0 | 0.00 | 0.00 | 0.00 | 43 | 1011.0 |
| 20260831011548 | 92 | 180 | 2.0 | 9.0 | 0.00 | 0.00 | 0.00 | 43 | 1011.0 |
| 20260831011026 | 92 | 149 | 4.0 | 10.0 | 0.00 | 0.00 | 0.00 | 42 | 1011.0 |
| 20260831010526 | 92 | 158 | 3.0 | 10.0 | 0.00 | 0.00 | 0.00 | 42 | 1011.0 |
| 20260831010107 | 92 | 165 | 3.0 | 10.0 | 0.00 | 0.00 | 0.00 | 42 | 1010.9 |
| 20260831005523 | 93 | 181 | 4.0 | 10.0 | 0.00 | 0.00 | 0.00 | 42 | 1010.8 |
| 20260831005027 | 93 | 158 | 4.0 | 10.0 | 0.00 | 0.00 | 0.00 | 41 | 1010.8 |
| 20260831004552 | 93 | 179 | 3.0 | 10.0 | 0.00 | 0.00 | 0.00 | 41 | 1010.9 |
| 20260831004024 | 94 | 201 | 2.0 | 11.0 | 0.00 | 0.00 | 0.00 | 41 | 1010.9 |
| 20260831003524 | 94 | 0 | 4.0 | 11.0 | 0.00 | 0.00 | 0.00 | 40 | 1010.9 |
| 20260831003103 | 94 | 186 | 3.0 | 12.0 | 0.00 | 0.00 | 0.00 | 40 | 1010.9 |
| 20260831002524 | 95 | 0 | 2.0 | 14.0 | 0.00 | 0.00 | 0.00 | 40 | 1010.9 |
| 20260831002025 | 95 | 175 | 4.0 | 14.0 | 0.00 | 0.00 | 0.00 | 40 | 1010.8 |
| 20260831001547 | 95 | 175 | 3.0 | 11.0 | 0.00 | 0.00 | 0.00 | 40 | 1010.8 |
| 20260831001024 | 96 | 169 | 3.0 | 12.0 | 0.00 | 0.00 | 0.00 | 39 | 1010.7 |
| 20260831000523 | 96 | 175 | 3.0 | 12.0 | 0.00 | 0.00 | 0.00 | 40 | 1010.9 |
| 20260831000049 | 96 | 170 | 3.0 | 11.0 | 0.00 | 0.00 | 0.00 | 39 | 1010.8 |
| 20260830235528 | 96 | 171 | 2.0 | 12.0 | 0.00 | 0.00 | 0.00 | 39 | 1010.8 |
| 20260830235027 | 97 | 178 | 1.0 | 13.0 | 0.00 | 0.00 | 0.00 | 39 | 1010.6 |
| 20260830234546 | 97 | 138 | 6.0 | 13.0 | 0.00 | 0.00 | 0.00 | 38 | 1010.6 |
| 20260830234025 | 97 | 209 | 3.0 | 11.0 | 0.00 | 0.00 | 0.00 | 38 | 1010.6 |
| 20260830233529 | 98 | 173 | 4.0 | 11.0 | 0.00 | 0.00 | 0.00 | 38 | 1010.6 |
| 20260830233050 | 98 | 186 | 2.0 | 9.0 | 0.00 | 0.00 | 0.00 | 38 | 1010.5 |
| 20260830232525 | 98 | 160 | 3.0 | 15.0 | 0.00 | 0.00 | 0.00 | 37 | 1010.5 |
| 20260830232025 | 98 | 0 | 4.0 | 19.0 | 0.00 | 0.00 | 0.00 | 36 | 1010.5 |
| 20260830231549 | 98 | 171 | 6.0 | 20.0 | 0.00 | 0.00 | 0.00 | 35 | 1010.4 |
| 20260830231023 | 98 | 160 | 5.0 | 20.0 | 0.00 | 0.00 | 0.00 | 35 | 1010.6 |
| 20260830230527 | 99 | 143 | 6.0 | 15.0 | 0.00 | 0.00 | 0.00 | 34 | 1010.4 |
| 20260830230045 | 99 | 182 | 3.0 | 18.0 | 0.00 | 0.00 | 0.00 | 35 | 1010.3 |
| 20260830225524 | 99 | 333 | 5.0 | 20.0 | 0.00 | 0.00 | 0.00 | 35 | 1010.3 |
| 20260830225022 | 99 | 184 | 7.0 | 20.0 | 0.00 | 0.00 | 0.00 | 35 | 1010.3 |
| 20260830224548 | 99 | 161 | 7.0 | 16.0 | 0.00 | 0.00 | 0.00 | 34 | 1010.3 |
| 20260830224025 | 99 | 128 | 6.0 | 19.0 | 0.00 | 0.00 | 0.00 | 35 | 1010.2 |
| 20260830223523 | 99 | 227 | 7.0 | 22.0 | 0.00 | 0.00 | 0.00 | 35 | 1010.3 |
| 20260830223045 | 99 | 173 | 7.0 | 22.0 | 0.00 | 0.00 | 0.00 | 35 | 1010.3 |
| 20260830222524 | 99 | 126 | 3.0 | 17.0 | 0.00 | 0.00 | 0.00 | 36 | 1010.4 |
| 20260830222024 | 99 | 198 | 6.0 | 17.0 | 0.00 | 0.00 | 0.00 | 35 | 1010.3 |
| 20260830221545 | 99 | 130 | 4.0 | 19.0 | 0.00 | 0.00 | 0.00 | 36 | 1010.3 |
| 20260830221024 | 99 | 155 | 4.0 | 19.0 | 0.00 | 0.00 | 0.00 | 36 | 1010.3 |
| 20260830220526 | 99 | 152 | 6.0 | 19.0 | 0.00 | 0.00 | 0.00 | 36 | 1010.4 |
| 20260830220051 | 100 | 183 | 6.0 | 14.0 | 0.00 | 0.00 | 0.00 | 36 | 1010.4 |
| 20260830215527 | 100 | 236 | 4.0 | 17.0 | 0.00 | 0.00 | 0.00 | 36 | 1010.4 |
| 20260830215027 | 100 | 125 | 4.0 | 18.0 | 0.00 | 0.00 | 0.00 | 36 | 1010.4 |
| 20260830214544 | 100 | 169 | 8.0 | 18.0 | 0.00 | 0.00 | 0.00 | 36 | 1010.4 |
| 20260830214026 | 100 | 181 | 6.0 | 17.0 | 0.00 | 0.00 | 0.00 | 35 | 1010.4 |
| 20260830213530 | 100 | 148 | 8.0 | 15.0 | 0.00 | 0.00 | 0.00 | 35 | 1010.6 |
| 20260830213049 | 100 | 158 | 5.0 | 14.0 | 0.00 | 0.00 | 0.00 | 37 | 1010.6 |
| 20260830212524 | 100 | 174 | 3.0 | 19.0 | 0.00 | 0.00 | 0.00 | 37 | 1010.6 |
| 20260830212027 | 100 | 202 | 4.0 | 20.0 | 0.00 | 0.00 | 0.00 | 38 | 1010.6 |
| 20260830211548 | 99 | 126 | 9.0 | 20.0 | 0.00 | 0.00 | 0.00 | 38 | 1010.8 |
| 20260830211026 | 100 | 213 | 5.0 | 19.0 | 0.00 | 0.00 | 0.00 | 37 | 1010.8 |
| 20260830210524 | 100 | 149 | 4.0 | 19.0 | 0.00 | 0.00 | 0.00 | 36 | 1010.8 |
| 20260830210046 | 100 | 128 | 6.0 | 16.0 | 0.00 | 0.00 | 0.00 | 37 | 1010.8 |
| 20260830205527 | 100 | 185 | 5.0 | 16.0 | 0.00 | 0.00 | 0.00 | 38 | 1011.0 |
| 20260830205023 | 100 | 161 | 4.0 | 19.0 | 0.00 | 0.00 | 0.00 | 38 | 1011.0 |
| 20260830204544 | 100 | 209 | 4.0 | 19.0 | 0.00 | 0.00 | 0.00 | 38 | 1011.0 |
| 20260830204025 | 100 | 201 | 6.0 | 16.0 | 0.00 | 0.00 | 0.00 | 38 | 1011.0 |
| 20260830203524 | 100 | 162 | 3.0 | 16.0 | 0.00 | 0.00 | 0.00 | 38 | 1011.1 |
| 20260830203051 | 99 | 222 | 5.0 | 16.0 | 0.00 | 0.00 | 0.00 | 38 | 1011.3 |
| 20260830202526 | 99 | 325 | 5.0 | 16.0 | 0.00 | 0.00 | 0.00 | 38 | 1011.4 |
| 20260830202024 | 100 | 169 | 4.0 | 16.0 | 0.00 | 0.00 | 0.00 | 37 | 1011.6 |
| 20260830201549 | 100 | 136 | 2.0 | 13.0 | 0.00 | 0.00 | 0.00 | 39 | 1011.5 |
| 20260830201027 | 100 | 115 | 4.0 | 18.0 | 0.00 | 0.00 | 0.00 | 39 | 1011.5 |